sat.trackr.live / text

‹ back to catalog

STARLINK-3940

NORAD 52540 · 2022-051H

PAYLOAD ACTIVE UNKNOWN

§ Identity

Operator
Country
US
Launch date
2022-05-13
Launch site
AFWTR
Launch vehicle
Mass (kg)
RCS (m²)

Purposes: comms

External: N2YO · Heavens-Above · Gunter

§ Orbital elements

Epoch: 2026-09-19T18:51:26.824896Z

Period
93.85 min
Inclination
53.1605°
Eccentricity
0.0001163
Mean motion
15.34389063 rev/d
Perigee alt
461.9 km
Apogee alt
463.5 km
Semi-major
6,840.9 km
B*
1.8667e-5
RAAN
325.4016°
Arg perigee
71.4648°
Mean anomaly
288.6481°
Rev number
24,091

§ Raw data

STARLINK-39401 52540U 22051H   26262.78572714  .00000254  00000+0  18667-4 0  99972 52540  53.1605 325.4016 0001163  71.4648 288.6481 15.34389063240915

JSON: /api/v1/satellites/52540 · /tle

For live sub-satellite position, see the globe view (requires WebGL).

§ Visibility from observer

Set your observer location to see the next 7 days of passes ≥ 10°. The values pass through the URL so the page stays shareable.

No JS? Fill the form by hand. The geolocation button needs JavaScript.